Weather in Dang'ara

Tajikistan     38°05′52″N   69°20′12″E
В апреле 2022 года жителям России запретили посещать сайт meteo.paraplan.net по решению Генеральной прокуратуры. Аудитория сайта уменьшилась в 10 раз. Владельцы сайта не видят смысла в поддержке погодного сервера в таких условиях. Сайт будет закрыт в октябре.
temp.,
°C
wind,
m/s
gust,
m/s
humid.,
%
clouds,
%
prec.,
mm/h
press.,
hPa
HPBL,
m
6 october, thu
thu623:00+15e11250 0.0 101910
02:00+13ne22310 0.0 101911
05:00+12ne22330 0.0 102014
08:00+16nne22260 0.0 102196
11:00+22wsw21130 0.0 10191334
14:00+24wsw32120 0.0 10162767
17:00+23sw45110 0.0 1016342
20:00+16wnw22180 0.0 101911
7 october, fri
fri723:00+14n11200 0.0 102010
02:00+12ne22220 0.0 102013
05:00+11nne22230 0.0 102114
08:00+15ne22200 0.0 102190
11:00+22sw21130 0.0 1019889
14:00+25sw3290 0.0 10171940
17:00+23sw34100 0.0 101691
20:00+16w11140 0.0 101911
8 october, sat
sat823:00+14nne22160 0.0 102114
02:00+13nne32170 0.0 102116
05:00+12nne22190 0.0 102115
08:00+16ne12165 0.0 102269
11:00+22sw221052 0.0 1021953
14:00+25sw32956 0.0 10181708
17:00+23sw34100 0.0 1018109
20:00+16wnw11140 0.0 102011
9 october, sun
sun923:00+14nne22160 0.0 102113
02:00+12nne22180 0.0 102115
05:00+11nne22200 0.0 102114
08:00+15ne22160 0.0 102273
11:00+22sw21100 0.0 1020875
14:00+25sw3280 0.0 10161597
17:00+23sw3390 0.0 101656
20:00+16wnw11130 0.0 101811
10 october, mon
mon1023:00+14nne22150 0.0 102013
02:00+12nne22170 0.0 102015
05:00+11nne22190 0.0 102014
08:00+15ne22160 0.0 102173
11:00+22ssw11100 0.0 1019832
14:00+25sw2280 0.0 10151594
17:00+23sw22100 0.0 101432
20:00+16wnw11140 0.0 101611